Location: Unspecified
(43.4680°N, 87.1740°E)
Time: 09:15:51
(UTC+00:00)

USA 215 - Pass Details

Date: 17 January 2020
Orbit: 1098 x 1110 km, 123.0° (Epoch: 24 February)

Event Time Altitude Azimuth Distance (km) Brightness Sun altitude
Rises 22:32:38 0° 121° (ESE) 3,906 6.9 -33.6°
Reaches altitude 10° 22:35:06 10° 119° (ESE) 2,952 6.1 -33.2°
Maximum altitude 22:41:36 74° 36° (NE) 1,146 3.3 -32.0°
Enters shadow 22:41:58 72° 8° (N) 1,156 3.2 -31.9°
